OBJECT B (43759 NORAD) Tracking and Keplerian Element Data

This shows tracking and keplerian element data for the satellite.

Feedback or suggestion? Click here.




ElementValue
Catalog43759
NameOBJECT B
Epoch Orbit672
Epoch Day17.79462946
Epoch Year2019
RAAN91.5122
Inclination97.7633
Eccentricity0.0015729
Argument of Perigee106.3426
Mean Anonmoly253.9525
Mean Motion14.95056204
Decay Rate5.1E-07
L11 43759U 18099B 19017.79462946 .00000051 00000-0 99374-5 0 9993
L22 43759 97.7633 91.5122 0015729 106.3426 253.9525 14.95056204 6723

Live tracking and technical data element details for OBJECT B (NORAD 43759). OBJECT B can be tracked NOW for your location showing map with azimuth and elevation plus other details from your city location.

Track the satellite on the map from your city or location and see movement details for azimuth, elevation, latitude, longitude, range, height, and movement on the map or in text.







IsCatalogInMostPopularTable: catalog: 43759, numindb: 19
Update: records affected: 1



GetName: 43759 OBJECT B

Hit Count: updated at: Fri, 18 Jan 2019 21:43:21 GMT